Observations for Trim Market St
| Time | AQI | Temp °C | Hum % | Pres Pa | CO μg/m³ | H₂S μg/m³ | NO μg/m³ | NO₂ μg/m³ | O₃ μg/m³ | SO₂ μg/m³ | PM1 μg/m³ | PM2.5 μg/m³ | PM10 μg/m³ |
|---|---|---|---|---|---|---|---|---|---|---|---|---|---|
| Tuesday 14 July 2026 | |||||||||||||
| 05:26 | 1 | 16.3 | 76 | 34,954 | 0.13 | 0 | 0 | 2.99 | 15.52 | 0 | 2.14 | 4.19 | 6.94 |
| 05:25 | 1 | 16.3 | 76 | 35,086 | 0.12 | 0 | 0 | 4.79 | 18.58 | 0 | 2.14 | 3.71 | 6.94 |
| 05:24 | 1 | 16.3 | 76 | 35,223 | 0.12 | 0 | 0 | 3.9 | 16.69 | 0 | 2.85 | 3.72 | 6.35 |
| 05:23 | 1 | 16.3 | 76 | 35,394 | 0.13 | 0 | 0 | 3.6 | 15.69 | 0 | 1.43 | 4.19 | 7.53 |
| 05:22 | 1 | 16.3 | 76 | 35,520 | 0.14 | 0 | 0 | 4.1 | 15.88 | 0 | 0.71 | 3.24 | 6.35 |
| 05:21 | 1 | 16.3 | 76 | 35,683 | 0.13 | 0 | 0 | 6.3 | 18.3 | 0 | 2.14 | 3.72 | 6.35 |
| 05:20 | 1 | 16.3 | 76 | 35,918 | 0.14 | 0 | 0 | 3.01 | 21.97 | 0 | 2.14 | 3.72 | 6.35 |
| 05:17 | 1 | 16.4 | 76 | 36,421 | 0.13 | 0 | 0 | 4.79 | 18 | 0 | 2.85 | 4.68 | 7.53 |
| 05:16 | 1 | 16.3 | 76 | 36,714 | 0.13 | 0 | 0 | 3.72 | 16.55 | 0 | 2.85 | 4.68 | 8.12 |
| 05:10 | 1 | 16.4 | 76 | 38,771 | 0.12 | 0 | 0.19 | 4.33 | 19.24 | 0 | 2.14 | 3.74 | 6.94 |
| 05:05 | 1 | 16.4 | 76 | 40,444 | 0.14 | 0 | 0 | 1.45 | 25.49 | 0 | 3.56 | 4.71 | 8.12 |
| 04:47 | 1 | 16.5 | 75 | 41,800 | 0.14 | 0 | 0 | 4.36 | 18.38 | 0 | 2.14 | 3.29 | 5.74 |
| 04:46 | 1 | 16.6 | 75 | 41,925 | 0.13 | 0 | 0 | 3.53 | 19.26 | 0 | 1.43 | 3.29 | 6.34 |
| 04:45 | 1 | 16.6 | 75 | 42,029 | 0.14 | 0 | 0 | 4.83 | 18.49 | 0 | 1.43 | 3.29 | 6.34 |
| 04:44 | 1 | 16.6 | 75 | 42,293 | 0.15 | 0 | 1.29 | 4.54 | 18.04 | 0 | 2.85 | 4.25 | 7.53 |
| 04:43 | 1 | 16.6 | 75 | 42,429 | 0.2 | 0 | 0 | 3.74 | 18.04 | 0 | 2.14 | 2.81 | 5.74 |
| 04:42 | 1 | 16.6 | 75 | 42,474 | 0.13 | 0 | 0 | 3.93 | 18.3 | 0 | 2.14 | 3.29 | 5.74 |
| 04:41 | 1 | 16.6 | 75 | 42,472 | 0.14 | 0 | 0 | 4.64 | 18.45 | 0 | 2.14 | 3.29 | 5.74 |
| 04:40 | 1 | 16.6 | 75 | 42,554 | 0.14 | 0 | 0 | 4.44 | 17.43 | 0 | 2.85 | 3.77 | 7.53 |
| 04:39 | 1 | 16.6 | 75 | 42,623 | 0.14 | 0 | 0 | 4.24 | 17.05 | 0 | 0.71 | 2.81 | 6.34 |